| time (UTC) | temp F | wind direction | speed MPH | gust MPH | rain 1hr in | rain 24hr in | rain mn in | humidity % | barometer mb |
| 20260906144048 | 88 | 0 | 0.0 | 2.0 | 0.00 | 0.00 | 0.00 | 65 | 1016.7 |
| 20260906143546 | 87 | 0 | 0.0 | 0.0 | 0.00 | 0.00 | 0.00 | 66 | 1016.7 |
| 20260906143055 | 86 | 0 | 0.0 | 1.0 | 0.00 | 0.00 | 0.00 | 68 | 1016.7 |
| 20260906142544 | 85 | 0 | 0.0 | 1.0 | 0.00 | 0.00 | 0.00 | 69 | 1016.6 |
| 20260906142044 | 85 | 0 | 0.0 | 5.0 | 0.00 | 0.00 | 0.00 | 70 | 1016.6 |
| 20260906141601 | 84 | 0 | 0.0 | 5.0 | 0.00 | 0.00 | 0.00 | 71 | 1016.6 |
| 20260906141045 | 83 | 0 | 1.0 | 5.0 | 0.00 | 0.00 | 0.00 | 71 | 1016.7 |
| 20260906140545 | 83 | 0 | 1.0 | 4.0 | 0.00 | 0.00 | 0.00 | 72 | 1016.6 |
| 20260906140109 | 82 | 0 | 0.0 | 3.0 | 0.00 | 0.00 | 0.00 | 74 | 1016.7 |
| 20260906135544 | 81 | 0 | 0.0 | 0.0 | 0.00 | 0.00 | 0.00 | 75 | 1016.6 |
| 20260906135047 | 81 | 0 | 0.0 | 3.0 | 0.00 | 0.00 | 0.00 | 77 | 1016.6 |
| 20260906134617 | 80 | 0 | 0.0 | 3.0 | 0.00 | 0.00 | 0.00 | 78 | 1016.6 |
| 20260906134045 | 79 | 0 | 0.0 | 1.0 | 0.00 | 0.00 | 0.00 | 78 | 1016.6 |
| 20260906133544 | 79 | 0 | 0.0 | 1.0 | 0.00 | 0.00 | 0.00 | 79 | 1016.6 |
| 20260906133101 | 78 | 0 | 0.0 | 0.0 | 0.00 | 0.00 | 0.00 | 81 | 1016.6 |
| 20260906132547 | 77 | 0 | 0.0 | 1.0 | 0.00 | 0.00 | 0.00 | 82 | 1016.5 |
| 20260906132044 | 76 | 0 | 0.0 | 1.0 | 0.00 | 0.00 | 0.00 | 84 | 1016.6 |
| 20260906131601 | 76 | 0 | 0.0 | 1.0 | 0.00 | 0.00 | 0.00 | 86 | 1016.5 |
| 20260906131044 | 75 | 0 | 0.0 | 0.0 | 0.00 | 0.00 | 0.00 | 88 | 1016.4 |
| 20260906130546 | 74 | 0 | 0.0 | 0.0 | 0.00 | 0.00 | 0.00 | 90 | 1016.4 |
| 20260906130113 | 73 | 0 | 0.0 | 0.0 | 0.00 | 0.00 | 0.00 | 91 | 1016.4 |
| 20260906125545 | 73 | 0 | 0.0 | 0.0 | 0.00 | 0.00 | 0.00 | 92 | 1016.3 |
| 20260906125044 | 73 | 0 | 0.0 | 0.0 | 0.00 | 0.00 | 0.00 | 91 | 1016.3 |
| 20260906124602 | 72 | 0 | 0.0 | 0.0 | 0.00 | 0.00 | 0.00 | 91 | 1016.2 |
| 20260906124048 | 72 | 0 | 0.0 | 0.0 | 0.00 | 0.00 | 0.00 | 91 | 1016.1 |
| 20260906123545 | 72 | 0 | 0.0 | 0.0 | 0.00 | 0.00 | 0.00 | 91 | 1016.1 |
| 20260906123108 | 72 | 0 | 0.0 | 0.0 | 0.00 | 0.00 | 0.00 | 90 | 1016.0 |
| 20260906122545 | 72 | 0 | 0.0 | 0.0 | 0.00 | 0.00 | 0.00 | 90 | 1016.0 |
| 20260906122045 | 72 | 0 | 0.0 | 0.0 | 0.00 | 0.00 | 0.00 | 90 | 1015.9 |
| 20260906121625 | 72 | 0 | 0.0 | 0.0 | 0.00 | 0.00 | 0.00 | 90 | 1015.9 |
| 20260906121045 | 72 | 0 | 0.0 | 0.0 | 0.00 | 0.00 | 0.00 | 90 | 1015.9 |
| 20260906120544 | 72 | 0 | 0.0 | 0.0 | 0.00 | 0.00 | 0.00 | 90 | 1016.0 |
| 20260906120107 | 72 | 0 | 0.0 | 0.0 | 0.00 | 0.00 | 0.00 | 90 | 1015.9 |
| 20260906115545 | 72 | 0 | 0.0 | 0.0 | 0.00 | 0.00 | 0.00 | 90 | 1015.9 |
| 20260906115046 | 72 | 0 | 0.0 | 0.0 | 0.00 | 0.00 | 0.00 | 90 | 1015.8 |
| 20260906114625 | 72 | 0 | 0.0 | 0.0 | 0.00 | 0.00 | 0.00 | 89 | 1015.8 |
| 20260906114043 | 72 | 0 | 0.0 | 0.0 | 0.00 | 0.00 | 0.00 | 89 | 1015.7 |
| 20260906113545 | 72 | 0 | 0.0 | 0.0 | 0.00 | 0.00 | 0.00 | 89 | 1015.7 |
| 20260906113110 | 73 | 0 | 0.0 | 0.0 | 0.00 | 0.00 | 0.00 | 89 | 1015.7 |
| 20260906112545 | 73 | 0 | 0.0 | 0.0 | 0.00 | 0.00 | 0.00 | 89 | 1015.6 |
| 20260906112045 | 73 | 0 | 0.0 | 0.0 | 0.00 | 0.00 | 0.00 | 89 | 1015.6 |
| 20260906111605 | 73 | 0 | 0.0 | 0.0 | 0.00 | 0.00 | 0.00 | 89 | 1015.6 |
| 20260906111045 | 73 | 0 | 0.0 | 0.0 | 0.00 | 0.00 | 0.00 | 89 | 1015.6 |
| 20260906110548 | 73 | 0 | 0.0 | 0.0 | 0.00 | 0.00 | 0.00 | 88 | 1015.6 |
| 20260906110106 | 73 | 0 | 0.0 | 0.0 | 0.00 | 0.00 | 0.00 | 88 | 1015.5 |
| 20260906105545 | 73 | 0 | 0.0 | 0.0 | 0.00 | 0.00 | 0.00 | 88 | 1015.4 |
| 20260906105048 | 73 | 0 | 0.0 | 0.0 | 0.00 | 0.00 | 0.00 | 88 | 1015.3 |
| 20260906104601 | 73 | 0 | 0.0 | 0.0 | 0.00 | 0.00 | 0.00 | 88 | 1015.4 |
| 20260906104045 | 73 | 0 | 0.0 | 0.0 | 0.00 | 0.00 | 0.00 | 88 | 1015.4 |
| 20260906103546 | 73 | 0 | 0.0 | 0.0 | 0.00 | 0.00 | 0.00 | 88 | 1015.3 |
| 20260906103106 | 73 | 0 | 0.0 | 0.0 | 0.00 | 0.00 | 0.00 | 88 | 1015.3 |
| 20260906102545 | 73 | 0 | 0.0 | 0.0 | 0.00 | 0.00 | 0.00 | 88 | 1015.4 |
| 20260906102048 | 73 | 0 | 0.0 | 0.0 | 0.00 | 0.00 | 0.00 | 88 | 1015.2 |
| 20260906101554 | 73 | 0 | 0.0 | 0.0 | 0.00 | 0.00 | 0.00 | 87 | 1015.1 |
| 20260906101047 | 73 | 0 | 0.0 | 0.0 | 0.00 | 0.00 | 0.00 | 87 | 1015.2 |
| 20260906100545 | 73 | 0 | 0.0 | 0.0 | 0.00 | 0.00 | 0.00 | 87 | 1015.2 |
| 20260906100051 | 73 | 0 | 0.0 | 0.0 | 0.00 | 0.00 | 0.00 | 87 | 1015.2 |
| 20260906095545 | 73 | 0 | 0.0 | 0.0 | 0.00 | 0.00 | 0.00 | 87 | 1015.2 |
| 20260906095045 | 73 | 0 | 0.0 | 0.0 | 0.00 | 0.00 | 0.00 | 87 | 1015.2 |
| 20260906094558 | 73 | 0 | 0.0 | 0.0 | 0.00 | 0.00 | 0.00 | 87 | 1015.2 |
| 20260906094045 | 73 | 0 | 0.0 | 0.0 | 0.00 | 0.00 | 0.00 | 87 | 1015.1 |
| 20260906093545 | 73 | 0 | 0.0 | 0.0 | 0.00 | 0.00 | 0.00 | 87 | 1015.1 |
| 20260906093108 | 73 | 0 | 0.0 | 0.0 | 0.00 | 0.00 | 0.00 | 86 | 1015.0 |
| 20260906092544 | 73 | 0 | 0.0 | 0.0 | 0.00 | 0.00 | 0.00 | 86 | 1015.1 |
| 20260906092046 | 73 | 0 | 0.0 | 0.0 | 0.00 | 0.00 | 0.00 | 86 | 1015.1 |
| 20260906091553 | 73 | 0 | 0.0 | 0.0 | 0.00 | 0.00 | 0.00 | 86 | 1015.0 |
| 20260906091044 | 73 | 0 | 0.0 | 0.0 | 0.00 | 0.00 | 0.00 | 85 | 1014.9 |
| 20260906090546 | 73 | 0 | 0.0 | 0.0 | 0.00 | 0.00 | 0.00 | 85 | 1014.8 |
| 20260906090109 | 73 | 0 | 0.0 | 0.0 | 0.00 | 0.00 | 0.00 | 85 | 1014.9 |
| 20260906085544 | 73 | 0 | 0.0 | 0.0 | 0.00 | 0.00 | 0.00 | 85 | 1014.9 |
| 20260906085044 | 73 | 0 | 0.0 | 0.0 | 0.00 | 0.00 | 0.00 | 85 | 1014.8 |
| 20260906084554 | 73 | 0 | 0.0 | 0.0 | 0.00 | 0.00 | 0.00 | 85 | 1014.9 |
| 20260906084044 | 74 | 0 | 0.0 | 0.0 | 0.00 | 0.00 | 0.00 | 86 | 1014.8 |
| 20260906083545 | 74 | 0 | 0.0 | 0.0 | 0.00 | 0.00 | 0.00 | 86 | 1014.9 |
| 20260906083055 | 74 | 0 | 0.0 | 0.0 | 0.00 | 0.00 | 0.00 | 85 | 1014.9 |
| 20260906082544 | 74 | 0 | 0.0 | 0.0 | 0.00 | 0.00 | 0.00 | 86 | 1014.9 |
| 20260906082044 | 74 | 0 | 0.0 | 0.0 | 0.00 | 0.00 | 0.00 | 85 | 1014.8 |
| 20260906081556 | 74 | 0 | 0.0 | 0.0 | 0.00 | 0.00 | 0.00 | 85 | 1014.7 |
| 20260906081045 | 74 | 0 | 0.0 | 0.0 | 0.00 | 0.00 | 0.00 | 85 | 1014.9 |
| 20260906080547 | 74 | 0 | 0.0 | 0.0 | 0.00 | 0.00 | 0.00 | 85 | 1014.9 |
| 20260906080109 | 74 | 0 | 0.0 | 0.0 | 0.00 | 0.00 | 0.00 | 85 | 1014.8 |
| 20260906075544 | 74 | 0 | 0.0 | 0.0 | 0.00 | 0.00 | 0.00 | 85 | 1014.7 |
| 20260906075045 | 74 | 0 | 0.0 | 0.0 | 0.00 | 0.00 | 0.00 | 85 | 1014.8 |
| 20260906074558 | 74 | 0 | 0.0 | 0.0 | 0.00 | 0.00 | 0.00 | 85 | 1014.9 |
| 20260906074045 | 74 | 0 | 0.0 | 0.0 | 0.00 | 0.00 | 0.00 | 85 | 1014.9 |
| 20260906073545 | 74 | 0 | 0.0 | 0.0 | 0.00 | 0.00 | 0.00 | 85 | 1014.9 |
| 20260906073055 | 74 | 0 | 0.0 | 0.0 | 0.00 | 0.00 | 0.00 | 85 | 1015.0 |
| 20260906072549 | 74 | 0 | 0.0 | 0.0 | 0.00 | 0.00 | 0.00 | 85 | 1015.0 |
| 20260906072045 | 74 | 0 | 0.0 | 0.0 | 0.00 | 0.00 | 0.00 | 85 | 1015.2 |
| 20260906071556 | 75 | 0 | 0.0 | 0.0 | 0.00 | 0.00 | 0.00 | 84 | 1015.1 |
| 20260906071044 | 75 | 0 | 0.0 | 0.0 | 0.00 | 0.00 | 0.00 | 84 | 1015.1 |
| 20260906070545 | 75 | 0 | 0.0 | 0.0 | 0.00 | 0.00 | 0.00 | 84 | 1015.1 |
| 20260906070107 | 75 | 0 | 0.0 | 0.0 | 0.00 | 0.00 | 0.00 | 84 | 1015.2 |
| 20260906065548 | 75 | 0 | 0.0 | 0.0 | 0.00 | 0.00 | 0.00 | 83 | 1015.2 |
| 20260906065044 | 75 | 0 | 0.0 | 0.0 | 0.00 | 0.00 | 0.00 | 83 | 1015.2 |
| 20260906064557 | 75 | 0 | 0.0 | 0.0 | 0.00 | 0.00 | 0.00 | 83 | 1015.2 |
| 20260906064046 | 75 | 0 | 0.0 | 0.0 | 0.00 | 0.00 | 0.00 | 82 | 1015.3 |
| 20260906063547 | 75 | 0 | 0.0 | 0.0 | 0.00 | 0.00 | 0.00 | 81 | 1015.3 |
| 20260906063055 | 75 | 0 | 0.0 | 0.0 | 0.00 | 0.00 | 0.00 | 80 | 1015.3 |
| 20260906062548 | 75 | 0 | 0.0 | 0.0 | 0.00 | 0.00 | 0.00 | 80 | 1015.4 |
| 20260906062044 | 75 | 0 | 0.0 | 0.0 | 0.00 | 0.00 | 0.00 | 80 | 1015.4 |
| 20260906061606 | 76 | 0 | 0.0 | 0.0 | 0.00 | 0.00 | 0.00 | 80 | 1015.4 |
| 20260906061044 | 76 | 0 | 0.0 | 0.0 | 0.00 | 0.00 | 0.00 | 79 | 1015.4 |
| 20260906060546 | 76 | 0 | 0.0 | 0.0 | 0.00 | 0.00 | 0.00 | 79 | 1015.3 |
| 20260906060155 | 76 | 0 | 0.0 | 0.0 | 0.00 | 0.00 | 0.00 | 79 | 1015.3 |
| 20260906055546 | 76 | 0 | 0.0 | 0.0 | 0.00 | 0.00 | 0.00 | 79 | 1015.2 |
| 20260906055046 | 76 | 0 | 0.0 | 0.0 | 0.00 | 0.00 | 0.00 | 79 | 1015.2 |
| 20260906054616 | 76 | 0 | 0.0 | 0.0 | 0.00 | 0.00 | 0.00 | 79 | 1015.3 |
| 20260906054046 | 76 | 0 | 0.0 | 0.0 | 0.00 | 0.00 | 0.00 | 78 | 1015.4 |
| 20260906053545 | 76 | 0 | 0.0 | 0.0 | 0.00 | 0.00 | 0.00 | 78 | 1015.3 |
| 20260906053105 | 76 | 0 | 0.0 | 0.0 | 0.00 | 0.00 | 0.00 | 78 | 1015.3 |
| 20260906052546 | 76 | 0 | 0.0 | 0.0 | 0.00 | 0.00 | 0.00 | 78 | 1015.2 |
| 20260906052047 | 76 | 0 | 0.0 | 0.0 | 0.00 | 0.00 | 0.00 | 78 | 1015.1 |
| 20260906051606 | 76 | 0 | 0.0 | 0.0 | 0.00 | 0.00 | 0.00 | 78 | 1015.1 |
| 20260906051046 | 77 | 0 | 0.0 | 0.0 | 0.00 | 0.00 | 0.00 | 78 | 1015.1 |
| 20260906050545 | 77 | 0 | 0.0 | 0.0 | 0.00 | 0.00 | 0.00 | 78 | 1015.1 |
| 20260906050115 | 77 | 0 | 0.0 | 0.0 | 0.00 | 0.00 | 0.00 | 77 | 1015.2 |
| 20260906045544 | 77 | 0 | 0.0 | 0.0 | 0.00 | 0.00 | 0.00 | 77 | 1015.1 |
| 20260906045045 | 77 | 0 | 0.0 | 0.0 | 0.00 | 0.00 | 0.00 | 77 | 1015.2 |
| 20260906044606 | 77 | 0 | 0.0 | 0.0 | 0.00 | 0.00 | 0.00 | 77 | 1015.2 |
| 20260906044048 | 77 | 0 | 0.0 | 0.0 | 0.00 | 0.00 | 0.00 | 77 | 1015.0 |
| 20260906043542 | 77 | 0 | 0.0 | 0.0 | 0.00 | 0.00 | 0.00 | 77 | 1015.1 |
| 20260906043112 | 77 | 0 | 0.0 | 0.0 | 0.00 | 0.00 | 0.00 | 77 | 1015.2 |
| 20260906042546 | 77 | 0 | 0.0 | 0.0 | 0.00 | 0.00 | 0.00 | 77 | 1015.2 |
| 20260906042043 | 77 | 0 | 0.0 | 0.0 | 0.00 | 0.00 | 0.00 | 77 | 1015.2 |
| 20260906041604 | 77 | 0 | 0.0 | 0.0 | 0.00 | 0.00 | 0.00 | 77 | 1015.2 |
| 20260906041044 | 77 | 0 | 0.0 | 0.0 | 0.00 | 0.00 | 0.00 | 77 | 1015.2 |
| 20260906040546 | 77 | 0 | 0.0 | 0.0 | 0.00 | 0.00 | 0.00 | 77 | 1015.2 |
| 20260906035545 | 78 | 0 | 0.0 | 0.0 | 0.00 | 0.00 | 0.00 | 76 | 1015.2 |
| 20260906035043 | 78 | 0 | 0.0 | 0.0 | 0.00 | 0.00 | 0.00 | 76 | 1015.2 |
| 20260906034607 | 78 | 0 | 0.0 | 0.0 | 0.00 | 0.00 | 0.00 | 77 | 1015.2 |
| 20260906034046 | 78 | 0 | 0.0 | 0.0 | 0.00 | 0.00 | 0.00 | 77 | 1015.3 |
| 20260906033543 | 78 | 0 | 0.0 | 0.0 | 0.00 | 0.00 | 0.00 | 77 | 1015.3 |
| 20260906033107 | 78 | 0 | 0.0 | 0.0 | 0.00 | 0.00 | 0.00 | 76 | 1015.3 |
| 20260906032543 | 78 | 0 | 0.0 | 0.0 | 0.00 | 0.00 | 0.00 | 76 | 1015.3 |
| 20260906032046 | 79 | 0 | 0.0 | 0.0 | 0.00 | 0.00 | 0.00 | 77 | 1015.3 |
| 20260906031625 | 79 | 0 | 0.0 | 0.0 | 0.00 | 0.00 | 0.00 | 76 | 1015.2 |
| 20260906031043 | 79 | 0 | 0.0 | 0.0 | 0.00 | 0.00 | 0.00 | 76 | 1015.1 |
| 20260906030544 | 79 | 0 | 0.0 | 0.0 | 0.00 | 0.00 | 0.00 | 76 | 1015.1 |
| 20260906030059 | 79 | 0 | 0.0 | 0.0 | 0.00 | 0.00 | 0.00 | 76 | 1015.1 |
| 20260906025543 | 79 | 0 | 0.0 | 0.0 | 0.00 | 0.00 | 0.00 | 75 | 1015.1 |
| 20260906025044 | 80 | 0 | 0.0 | 0.0 | 0.00 | 0.00 | 0.00 | 75 | 1015.1 |
| 20260906024600 | 80 | 0 | 0.0 | 0.0 | 0.00 | 0.00 | 0.00 | 74 | 1014.9 |
| 20260906024044 | 80 | 0 | 0.0 | 0.0 | 0.00 | 0.00 | 0.00 | 74 | 1014.9 |
| 20260906023543 | 80 | 0 | 0.0 | 0.0 | 0.00 | 0.00 | 0.00 | 73 | 1014.9 |
| 20260906023113 | 80 | 0 | 0.0 | 0.0 | 0.00 | 0.00 | 0.00 | 74 | 1014.8 |
| 20260906022543 | 80 | 0 | 0.0 | 0.0 | 0.00 | 0.00 | 0.00 | 72 | 1014.8 |
| 20260906022045 | 80 | 0 | 0.0 | 0.0 | 0.00 | 0.00 | 0.00 | 72 | 1014.7 |
| 20260906021602 | 81 | 0 | 0.0 | 0.0 | 0.00 | 0.00 | 0.00 | 71 | 1014.6 |
| 20260906021043 | 81 | 0 | 0.0 | 0.0 | 0.00 | 0.00 | 0.00 | 71 | 1014.4 |
| 20260906020543 | 81 | 0 | 0.0 | 0.0 | 0.00 | 0.00 | 0.00 | 72 | 1014.4 |
| 20260906015543 | 81 | 0 | 0.0 | 0.0 | 0.00 | 0.00 | 0.00 | 70 | 1014.2 |
| 20260906015044 | 81 | 0 | 0.0 | 0.0 | 0.00 | 0.00 | 0.00 | 70 | 1014.2 |
| 20260906014554 | 82 | 0 | 0.0 | 0.0 | 0.00 | 0.00 | 0.00 | 70 | 1014.1 |
| 20260906014044 | 82 | 0 | 0.0 | 0.0 | 0.00 | 0.00 | 0.00 | 70 | 1014.0 |
| 20260906013544 | 82 | 0 | 0.0 | 0.0 | 0.00 | 0.00 | 0.00 | 70 | 1014.0 |
| 20260906013053 | 83 | 0 | 0.0 | 0.0 | 0.00 | 0.00 | 0.00 | 69 | 1014.0 |
| 20260906012545 | 83 | 0 | 0.0 | 0.0 | 0.00 | 0.00 | 0.00 | 67 | 1013.9 |
| 20260906012044 | 83 | 0 | 0.0 | 0.0 | 0.00 | 0.00 | 0.00 | 67 | 1013.8 |
| 20260906011558 | 84 | 0 | 0.0 | 0.0 | 0.00 | 0.00 | 0.00 | 67 | 1013.8 |
| 20260906011045 | 84 | 0 | 0.0 | 0.0 | 0.00 | 0.00 | 0.00 | 66 | 1013.7 |
| 20260906010545 | 85 | 0 | 0.0 | 0.0 | 0.00 | 0.00 | 0.00 | 64 | 1013.7 |
| 20260906010107 | 85 | 0 | 0.0 | 0.0 | 0.00 | 0.00 | 0.00 | 64 | 1013.6 |
| 20260906005544 | 85 | 0 | 0.0 | 0.0 | 0.00 | 0.00 | 0.00 | 64 | 1013.6 |
| 20260906005045 | 86 | 0 | 0.0 | 0.0 | 0.00 | 0.00 | 0.00 | 63 | 1013.6 |
| 20260906004602 | 86 | 0 | 0.0 | 0.0 | 0.00 | 0.00 | 0.00 | 62 | 1013.5 |
| 20260906004045 | 87 | 0 | 0.0 | 0.0 | 0.00 | 0.00 | 0.00 | 60 | 1013.6 |
| 20260906003545 | 88 | 0 | 0.0 | 0.0 | 0.00 | 0.00 | 0.00 | 60 | 1013.5 |
| 20260906003054 | 88 | 0 | 0.0 | 0.0 | 0.00 | 0.00 | 0.00 | 60 | 1013.6 |
| 20260906002544 | 89 | 0 | 0.0 | 0.0 | 0.00 | 0.00 | 0.00 | 60 | 1013.6 |
| 20260906002045 | 89 | 0 | 0.0 | 0.0 | 0.00 | 0.00 | 0.00 | 58 | 1013.6 |
| 20260906001553 | 90 | 0 | 0.0 | 0.0 | 0.00 | 0.00 | 0.00 | 58 | 1013.6 |
| 20260906001044 | 90 | 0 | 0.0 | 0.0 | 0.00 | 0.00 | 0.00 | 57 | 1013.7 |
| 20260906000545 | 90 | 0 | 0.0 | 0.0 | 0.00 | 0.00 | 0.00 | 56 | 1013.6 |
| 20260906000109 | 91 | 0 | 0.0 | 0.0 | 0.00 | 0.00 | 0.00 | 56 | 1013.8 |
| 20260905235548 | 91 | 0 | 0.0 | 0.0 | 0.00 | 0.00 | 0.00 | 55 | 1013.8 |
| 20260905235045 | 91 | 0 | 0.0 | 0.0 | 0.00 | 0.00 | 0.00 | 54 | 1013.8 |
| 20260905234558 | 91 | 0 | 0.0 | 0.0 | 0.00 | 0.00 | 0.00 | 55 | 1013.8 |
| 20260905234045 | 91 | 0 | 0.0 | 0.0 | 0.00 | 0.00 | 0.00 | 54 | 1013.8 |
| 20260905233545 | 91 | 0 | 0.0 | 0.0 | 0.00 | 0.00 | 0.00 | 52 | 1013.8 |
| 20260905233101 | 92 | 0 | 0.0 | 0.0 | 0.00 | 0.00 | 0.00 | 52 | 1013.7 |
| 20260905232544 | 92 | 0 | 0.0 | 0.0 | 0.00 | 0.00 | 0.00 | 51 | 1013.8 |
| 20260905232045 | 92 | 0 | 0.0 | 0.0 | 0.00 | 0.00 | 0.00 | 50 | 1013.8 |
| 20260905231610 | 92 | 0 | 0.0 | 0.0 | 0.00 | 0.00 | 0.00 | 50 | 1013.8 |
| 20260905231044 | 92 | 0 | 0.0 | 0.0 | 0.00 | 0.00 | 0.00 | 50 | 1013.8 |
| 20260905230545 | 93 | 0 | 0.0 | 0.0 | 0.00 | 0.00 | 0.00 | 48 | 1013.7 |
| 20260905230108 | 93 | 0 | 0.0 | 0.0 | 0.00 | 0.00 | 0.00 | 47 | 1013.6 |
| 20260905225544 | 93 | 0 | 0.0 | 0.0 | 0.00 | 0.00 | 0.00 | 47 | 1013.6 |
| 20260905225045 | 94 | 0 | 0.0 | 0.0 | 0.00 | 0.00 | 0.00 | 47 | 1013.6 |
| 20260905224556 | 95 | 0 | 0.0 | 0.0 | 0.00 | 0.00 | 0.00 | 45 | 1013.6 |
| 20260905224045 | 95 | 0 | 0.0 | 3.0 | 0.00 | 0.00 | 0.00 | 45 | 1013.6 |
| 20260905223545 | 95 | 0 | 0.0 | 5.0 | 0.00 | 0.00 | 0.00 | 43 | 1013.6 |
| 20260905223056 | 96 | 0 | 0.0 | 5.0 | 0.00 | 0.00 | 0.00 | 41 | 1013.7 |
| 20260905222546 | 96 | 0 | 0.0 | 6.0 | 0.00 | 0.00 | 0.00 | 42 | 1013.6 |
| 20260905222043 | 96 | 0 | 0.0 | 6.0 | 0.00 | 0.00 | 0.00 | 41 | 1013.4 |
| 20260905221628 | 96 | 44 | 1.0 | 9.0 | 0.00 | 0.00 | 0.00 | 41 | 1013.5 |
| 20260905221044 | 96 | 0 | 1.0 | 9.0 | 0.00 | 0.00 | 0.00 | 41 | 1013.6 |
| 20260905220543 | 96 | 23 | 0.0 | 4.0 | 0.00 | 0.00 | 0.00 | 44 | 1013.6 |
| 20260905220104 | 96 | 79 | 0.0 | 7.0 | 0.00 | 0.00 | 0.00 | 43 | 1013.6 |
| 20260905215543 | 96 | 0 | 0.0 | 7.0 | 0.00 | 0.00 | 0.00 | 43 | 1013.6 |
| 20260905215045 | 96 | 17 | 1.0 | 8.0 | 0.00 | 0.00 | 0.00 | 42 | 1013.7 |
| 20260905214606 | 96 | 35 | 2.0 | 11.0 | 0.00 | 0.00 | 0.00 | 42 | 1013.6 |
| 20260905214043 | 97 | 77 | 1.0 | 13.0 | 0.00 | 0.00 | 0.00 | 41 | 1013.7 |
| 20260905213544 | 100 | 61 | 4.0 | 13.0 | 0.00 | 0.00 | 0.00 | 37 | 1013.7 |
| 20260905213054 | 103 | 302 | 4.0 | 13.0 | 0.00 | 0.00 | 0.00 | 34 | 1013.7 |
| 20260905212547 | 103 | 0 | 1.0 | 4.0 | 0.00 | 0.00 | 0.00 | 31 | 1013.7 |
| 20260905212047 | 103 | 186 | 0.0 | 0.0 | 0.00 | 0.00 | 0.00 | 32 | 1013.5 |
| 20260905211551 | 102 | 0 | 0.0 | 4.0 | 0.00 | 0.00 | 0.00 | 30 | 1013.5 |
| 20260905211043 | 102 | 0 | 0.0 | 6.0 | 0.00 | 0.00 | 0.00 | 31 | 1013.6 |
| 20260905210547 | 102 | 0 | 0.0 | 8.0 | 0.00 | 0.00 | 0.00 | 30 | 1013.6 |
| 20260905210107 | 102 | 171 | 1.0 | 8.0 | 0.00 | 0.00 | 0.00 | 31 | 1013.7 |
| 20260905205546 | 102 | 0 | 1.0 | 8.0 | 0.00 | 0.00 | 0.00 | 31 | 1013.6 |
| 20260905205046 | 102 | 0 | 0.0 | 5.0 | 0.00 | 0.00 | 0.00 | 32 | 1013.8 |
| 20260905204607 | 102 | 0 | 0.0 | 6.0 | 0.00 | 0.00 | 0.00 | 32 | 1013.9 |
| 20260905204043 | 101 | 0 | 0.0 | 6.0 | 0.00 | 0.00 | 0.00 | 32 | 1013.9 |
| 20260905203547 | 102 | 0 | 3.0 | 6.0 | 0.00 | 0.00 | 0.00 | 30 | 1014.0 |
| 20260905203100 | 102 | 0 | 0.0 | 8.0 | 0.00 | 0.00 | 0.00 | 31 | 1014.0 |
| 20260905202547 | 102 | 0 | 0.0 | 8.0 | 0.00 | 0.00 | 0.00 | 31 | 1014.1 |
| 20260905202047 | 102 | 0 | 0.0 | 7.0 | 0.00 | 0.00 | 0.00 | 32 | 1014.2 |
| 20260905201554 | 102 | 216 | 1.0 | 4.0 | 0.00 | 0.00 | 0.00 | 31 | 1014.2 |
| 20260905201046 | 102 | 0 | 0.0 | 7.0 | 0.00 | 0.00 | 0.00 | 32 | 1014.4 |
| 20260905200543 | 102 | 0 | 0.0 | 7.0 | 0.00 | 0.00 | 0.00 | 32 | 1014.4 |
| 20260905200109 | 102 | 0 | 0.0 | 6.0 | 0.00 | 0.00 | 0.00 | 33 | 1014.4 |
| 20260905195546 | 102 | 0 | 0.0 | 7.0 | 0.00 | 0.00 | 0.00 | 32 | 1014.5 |
| 20260905195043 | 101 | 275 | 1.0 | 7.0 | 0.00 | 0.00 | 0.00 | 33 | 1014.6 |
| 20260905194601 | 101 | 0 | 1.0 | 6.0 | 0.00 | 0.00 | 0.00 | 33 | 1014.7 |
| 20260905194045 | 101 | 0 | 0.0 | 5.0 | 0.00 | 0.00 | 0.00 | 32 | 1014.8 |
| 20260905193546 | 101 | 0 | 0.0 | 8.0 | 0.00 | 0.00 | 0.00 | 34 | 1014.9 |
| 20260905193103 | 101 | 0 | 2.0 | 9.0 | 0.00 | 0.00 | 0.00 | 33 | 1014.9 |
| 20260905192547 | 102 | 217 | 3.0 | 9.0 | 0.00 | 0.00 | 0.00 | 34 | 1015.0 |
| 20260905192046 | 102 | 0 | 1.0 | 5.0 | 0.00 | 0.00 | 0.00 | 33 | 1014.9 |
| 20260905191553 | 101 | 0 | 0.0 | 3.0 | 0.00 | 0.00 | 0.00 | 35 | 1015.0 |
| 20260905191046 | 101 | 0 | 0.0 | 7.0 | 0.00 | 0.00 | 0.00 | 34 | 1015.1 |
| 20260905190547 | 101 | 0 | 0.0 | 7.0 | 0.00 | 0.00 | 0.00 | 33 | 1015.2 |
| 20260905185547 | 101 | 0 | 0.0 | 6.0 | 0.00 | 0.00 | 0.00 | 35 | 1015.3 |
| 20260905185043 | 101 | 0 | 0.0 | 6.0 | 0.00 | 0.00 | 0.00 | 36 | 1015.4 |
| 20260905184603 | 100 | 0 | 0.0 | 9.0 | 0.00 | 0.00 | 0.00 | 34 | 1015.5 |
| 20260905184047 | 100 | 0 | 0.0 | 9.0 | 0.00 | 0.00 | 0.00 | 34 | 1015.6 |
| 20260905183547 | 100 | 232 | 2.0 | 9.0 | 0.00 | 0.00 | 0.00 | 34 | 1015.6 |
| 20260905183105 | 100 | 0 | 2.0 | 7.0 | 0.00 | 0.00 | 0.00 | 34 | 1015.7 |
| 20260905182546 | 100 | 0 | 0.0 | 4.0 | 0.00 | 0.00 | 0.00 | 35 | 1015.8 |
| 20260905182048 | 100 | 0 | 1.0 | 4.0 | 0.00 | 0.00 | 0.00 | 35 | 1015.9 |
| 20260905181603 | 100 | 195 | 0.0 | 3.0 | 0.00 | 0.00 | 0.00 | 35 | 1015.9 |
| 20260905181046 | 99 | 0 | 0.0 | 1.0 | 0.00 | 0.00 | 0.00 | 35 | 1015.9 |
| 20260905180543 | 99 | 0 | 0.0 | 1.0 | 0.00 | 0.00 | 0.00 | 34 | 1015.9 |
| 20260905180115 | 99 | 0 | 0.0 | 1.0 | 0.00 | 0.00 | 0.00 | 37 | 1016.1 |
| 20260905175543 | 99 | 0 | 0.0 | 1.0 | 0.00 | 0.00 | 0.00 | 36 | 1016.1 |
| 20260905175043 | 99 | 0 | 0.0 | 3.0 | 0.00 | 0.00 | 0.00 | 35 | 1016.2 |
| 20260905174557 | 98 | 0 | 0.0 | 4.0 | 0.00 | 0.00 | 0.00 | 38 | 1016.2 |
| 20260905174043 | 97 | 0 | 0.0 | 4.0 | 0.00 | 0.00 | 0.00 | 37 | 1016.3 |
| 20260905173543 | 97 | 0 | 1.0 | 5.0 | 0.00 | 0.00 | 0.00 | 36 | 1016.4 |
| 20260905173129 | 97 | 0 | 0.0 | 5.0 | 0.00 | 0.00 | 0.00 | 35 | 1016.3 |
| 20260905172543 | 96 | 34 | 1.0 | 5.0 | 0.00 | 0.00 | 0.00 | 36 | 1016.4 |
| 20260905172044 | 96 | 0 | 1.0 | 5.0 | 0.00 | 0.00 | 0.00 | 35 | 1016.4 |
| 20260905171603 | 97 | 0 | 0.0 | 4.0 | 0.00 | 0.00 | 0.00 | 38 | 1016.5 |
| 20260905171043 | 97 | 0 | 0.0 | 9.0 | 0.00 | 0.00 | 0.00 | 38 | 1016.6 |
| 20260905170543 | 96 | 0 | 0.0 | 9.0 | 0.00 | 0.00 | 0.00 | 39 | 1016.6 |
| 20260905170105 | 97 | 34 | 1.0 | 8.0 | 0.00 | 0.00 | 0.00 | 40 | 1016.7 |
| 20260905165546 | 97 | 346 | 0.0 | 7.0 | 0.00 | 0.00 | 0.00 | 41 | 1016.7 |
| 20260905165045 | 96 | 0 | 0.0 | 7.0 | 0.00 | 0.00 | 0.00 | 42 | 1016.7 |
| 20260905164615 | 96 | 0 | 0.0 | 4.0 | 0.00 | 0.00 | 0.00 | 44 | 1016.8 |
| 20260905164049 | 96 | 0 | 0.0 | 2.0 | 0.00 | 0.00 | 0.00 | 44 | 1016.7 |
| 20260905163545 | 96 | 0 | 0.0 | 7.0 | 0.00 | 0.00 | 0.00 | 45 | 1016.7 |
| 20260905163105 | 95 | 0 | 1.0 | 7.0 | 0.00 | 0.00 | 0.00 | 45 | 1016.8 |
| 20260905162547 | 95 | 36 | 0.0 | 8.0 | 0.00 | 0.00 | 0.00 | 43 | 1016.9 |
| 20260905162044 | 96 | 0 | 0.0 | 8.0 | 0.00 | 0.00 | 0.00 | 43 | 1016.9 |
| 20260905161604 | 95 | 0 | 0.0 | 6.0 | 0.00 | 0.00 | 0.00 | 47 | 1017.0 |
| 20260905161046 | 95 | 0 | 0.0 | 6.0 | 0.00 | 0.00 | 0.00 | 45 | 1016.9 |
| 20260905160547 | 95 | 0 | 0.0 | 6.0 | 0.00 | 0.00 | 0.00 | 46 | 1017.0 |
| 20260905155545 | 94 | 0 | 0.0 | 5.0 | 0.00 | 0.00 | 0.00 | 48 | 1017.0 |
| 20260905155044 | 94 | 0 | 0.0 | 7.0 | 0.00 | 0.00 | 0.00 | 50 | 1016.9 |
| 20260905154606 | 94 | 0 | 3.0 | 7.0 | 0.00 | 0.00 | 0.00 | 48 | 1016.9 |
| 20260905154048 | 94 | 0 | 2.0 | 6.0 | 0.00 | 0.00 | 0.00 | 50 | 1017.0 |
| 20260905153545 | 93 | 0 | 0.0 | 5.0 | 0.00 | 0.00 | 0.00 | 52 | 1017.0 |
| 20260905153053 | 93 | 0 | 0.0 | 5.0 | 0.00 | 0.00 | 0.00 | 51 | 1017.0 |
| 20260905152545 | 92 | 254 | 0.0 | 6.0 | 0.00 | 0.00 | 0.00 | 53 | 1017.0 |
| 20260905152045 | 92 | 0 | 1.0 | 6.0 | 0.00 | 0.00 | 0.00 | 51 | 1017.0 |
| 20260905151558 | 92 | 263 | 0.0 | 6.0 | 0.00 | 0.00 | 0.00 | 52 | 1017.0 |
| 20260905151045 | 91 | 0 | 2.0 | 6.0 | 0.00 | 0.00 | 0.00 | 51 | 1016.9 |
| 20260905150546 | 91 | 0 | 0.0 | 5.0 | 0.00 | 0.00 | 0.00 | 53 | 1016.9 |
| 20260905150055 | 91 | 0 | 0.0 | 7.0 | 0.00 | 0.00 | 0.00 | 55 | 1016.8 |
| 20260905145546 | 90 | 0 | 1.0 | 7.0 | 0.00 | 0.00 | 0.00 | 54 | 1016.8 |
| 20260905145047 | 90 | 255 | 2.0 | 7.0 | 0.00 | 0.00 | 0.00 | 55 | 1016.9 |
| 20260905144552 | 90 | 256 | 1.0 | 7.0 | 0.00 | 0.00 | 0.00 | 55 | 1016.9 |